Left ArrowRight Arrow

Hourly Observations for March 27, 2023

Temp ( °F °C ) Dew Point ( °F °C ) Humidity (%) Winds ( mph kmh ) Pressure ( in mb ) Visibility ( mi km ) Precip ( " mm )
12:10 am 00:10 Clear 50 10 39 4 66 66 Calm 29.92 1013 10 16 0.00 0.00
12:30 am 00:30 Clear 50 10 41 5 71 71 Calm 29.92 1013 10 16 0.00 0.00
12:50 am 00:50 Clear 46 8 39 4 76 76 Calm 29.92 1013 10 16 0.00 0.00
1:10 am 01:10 Clear 50 10 39 4 66 66 Calm 29.90 1013 10 16 0.00 0.00
1:30 am 01:30 Clear 46 8 41 5 81 81 Calm 29.90 1012 10 16 0.00 0.00
1:50 am 01:50 Clear 46 8 39 4 76 76 Calm 29.89 1012 10 16 0.00 0.00
2:10 am 02:10 Clear 46 8 39 4 76 76 Calm 29.88 1012 10 16 0.00 0.00
2:30 am 02:30 Clear 45 7 37 3 76 76 Calm 29.88 1012 10 16 0.00 0.00
2:50 am 02:50 Clear 45 7 37 3 76 76 Calm 29.87 1012 10 16 0.00 0.00
3:10 am 03:10 Partly Cloudy 46 8 37 3 71 71 Calm 29.87 1011 10 16 0.00 0.00
3:30 am 03:30 Clear 45 7 37 3 76 76 Calm 29.87 1012 10 16 0.00 0.00
3:50 am 03:50 Clear 45 7 37 3 76 76 Calm 29.87 1012 10 16 0.00 0.00
4:10 am 04:10 Clear 45 7 37 3 76 76 Calm 29.86 1011 10 16 0.00 0.00
4:30 am 04:30 Clear 43 6 37 3 81 81 Calm 29.87 1011 10 16 0.00 0.00
4:50 am 04:50 Clear 43 6 37 3 81 81 Calm 29.87 1011 10 16 0.00 0.00
5:10 am 05:10 Clear 43 6 39 4 87 87 Calm 29.87 1011 10 16 0.00 0.00
5:30 am 05:30 Clear 43 6 39 4 87 87 Calm 29.86 1011 10 16 0.00 0.00
5:50 am 05:50 Partly Cloudy 43 6 39 4 87 87 NNW 9 15 29.89 1012 10 16 0.00 0.00
6:10 am 06:10 Cloudy 48 9 37 3 66 66 NNW 12 19 29.91 1013 10 16 0.00 0.00
6:30 am 06:30 Cloudy 48 9 37 3 66 66 NNW 10 17 29.91 1013 10 16 0.00 0.00
6:50 am 06:50 Mostly Cloudy 48 9 37 3 66 66 NNW 14 22 29.94 1014 10 16 0.00 0.00
7:10 am 07:10 Mostly Cloudy 48 9 41 5 76 76 N 15 24 29.94 1014 10 16 0.00 0.00
7:30 am 07:30 Cloudy 50 10 41 5 71 71 N 15 24 29.96 1015 10 16 0.00 0.00
7:50 am 07:50 Mostly Cloudy 48 9 41 5 76 76 N 16 26 29.97 1015 10 16 0.00 0.00
8:10 am 08:10 Mostly Cloudy 50 10 41 5 71 71 N 14 22 29.98 1015 10 16 0.00 0.00
8:30 am 08:30 Partly Cloudy 50 10 41 5 71 71 NNW 14 22 30.01 1016 10 16 0.00 0.00
8:50 am 08:50 Partly Cloudy 50 10 41 5 71 71 N 14 22 30.02 1017 10 16 0.00 0.00
9:10 am 09:10 Sunny 50 10 41 5 71 71 N 10 17 30.02 1017 10 16 0.00 0.00
9:30 am 09:30 Sunny 52 11 41 5 66 66 N 9 15 30.02 1016 10 16 0.00 0.00
9:50 am 09:50 Sunny 54 12 43 6 67 67 NNW 8 13 30.03 1017 10 16 0.00 0.00
10:10 am 10:10 Sunny 54 12 41 5 62 62 NNW 10 17 30.03 1017 10 16 0.00 0.00
10:30 am 10:30 Sunny 55 13 43 6 62 62 N 8 13 30.04 1017 10 16 0.00 0.00
10:50 am 10:50 Sunny 55 13 41 5 58 58 N 5 7 30.04 1017 10 16 0.00 0.00
11:10 am 11:10 Sunny 55 13 41 5 58 58 Calm 30.04 1017 10 16 0.00 0.00
11:30 am 11:30 Sunny 57 14 43 6 58 58 Calm 30.03 1017 10 16 0.00 0.00
11:50 am 11:50 Sunny 59 15 43 6 55 55 Calm 30.02 1017 10 16 0.00 0.00
12:10 pm 12:10 Sunny 59 15 41 5 51 51 Calm 30.01 1016 10 16 0.00 0.00
12:30 pm 12:30 Sunny 61 16 43 6 51 51 Calm 30.01 1016 10 16 0.00 0.00
12:50 pm 12:50 Mostly Cloudy 63 17 43 6 48 48 Calm 30.00 1016 10 16 0.00 0.00
1:10 pm 13:10 Mostly Cloudy 63 17 43 6 48 48 NNW 10 17 30.00 1016 10 16 0.00 0.00
1:30 pm 13:30 Sunny 63 17 43 6 48 48 NNW 9 15 30.00 1016 10 16 0.00 0.00
1:50 pm 13:50 Sunny 64 18 41 5 42 42 NW 12 19 30.00 1016 10 16 0.00 0.00
2:10 pm 14:10 Sunny 64 18 43 6 45 45 NW 10 17 30.00 1016 10 16 0.00 0.00
2:30 pm 14:30 Mostly Cloudy 64 18 43 6 45 45 NW 13 20 30.00 1016 10 16 0.00 0.00
2:50 pm 14:50 Partly Cloudy 64 18 41 5 42 42 NW 12 19 30.00 1016 10 16 0.00 0.00
3:10 pm 15:10 Partly Cloudy 66 19 41 5 40 40 NW 10 17 30.00 1016 10 16 0.00 0.00
3:30 pm 15:30 Partly Cloudy 66 19 39 4 37 37 W 10 17 30.00 1016 10 16 0.00 0.00
3:50 pm 15:50 Sunny 64 18 41 5 42 42 NW 15 24 30.01 1016 10 16 0.00 0.00
4:10 pm 16:10 Sunny 64 18 41 5 42 42 NW 14 22 30.01 1016 10 16 0.00 0.00
4:30 pm 16:30 Sunny 64 18 39 4 39 39 NNW 12 19 30.02 1017 10 16 0.00 0.00
4:50 pm 16:50 Sunny 64 18 41 5 42 42 WNW 18 30 30.02 1017 10 16 0.00 0.00
5:10 pm 17:10 Sunny 64 18 41 5 42 42 NW 13 20 30.03 1017 10 16 0.00 0.00
5:30 pm 17:30 Sunny 63 17 39 4 42 42 WNW 15 24 30.04 1017 10 16 0.00 0.00
5:50 pm 17:50 Sunny 61 16 41 5 48 48 NW 13 20 30.06 1018 10 16 0.00 0.00
6:10 pm 18:10 Sunny 61 16 41 5 48 48 NNW 14 22 30.07 1018 10 16 0.00 0.00
6:30 pm 18:30 Sunny 59 15 41 5 51 51 NNW 13 20 30.08 1019 10 16 0.00 0.00
6:50 pm 18:50 Sunny 57 14 41 5 55 55 NNW 12 19 30.10 1019 10 16 0.00 0.00
7:10 pm 19:10 Sunny 55 13 41 5 58 58 NNW 12 19 30.11 1020 10 16 0.00 0.00
7:30 pm 19:30 Sunny 54 12 39 4 58 58 NNW 7 11 30.12 1020 10 16 0.00 0.00
7:50 pm 19:50 Sunny 52 11 37 3 58 58 NNW 8 13 30.14 1021 10 16 0.00 0.00
8:10 pm 20:10 Clear 50 10 37 3 62 62 NNW 9 15 30.14 1021 10 16 0.00 0.00
8:30 pm 20:30 Clear 48 9 37 3 66 66 NNW 10 17 30.15 1021 10 16 0.00 0.00
8:50 pm 20:50 Clear 48 9 37 3 66 66 NNW 7 11 30.17 1022 10 16 0.00 0.00
9:10 pm 21:10 Clear 46 8 37 3 71 71 NNW 12 19 30.18 1022 10 16 0.00 0.00
9:30 pm 21:30 Clear 45 7 37 3 76 76 N 9 15 30.19 1023 10 16 0.00 0.00
9:50 pm 21:50 Clear 43 6 37 3 81 81 N 7 11 30.22 1023 10 16 0.00 0.00
10:10 pm 22:10 Clear 43 6 36 2 75 75 N 6 9 30.22 1023 10 16 0.00 0.00
10:30 pm 22:30 Clear 41 5 36 2 81 81 Calm 30.22 1023 10 16 0.00 0.00
10:50 pm 22:50 Clear 41 5 34 1 75 75 Calm 30.23 1024 10 16 0.00 0.00
11:10 pm 23:10 Clear 41 5 34 1 75 75 Calm 30.24 1024 10 16 0.00 0.00
11:30 pm 23:30 Clear 39 4 34 1 81 81 Calm 30.24 1024 10 16 0.00 0.00
11:50 pm 23:50 Clear 37 3 34 1 87 87 Calm 30.25 1024 10 16 0.00 0.00

Powered by Vaisala Xweather